Hourly Weather Dzierzgoń

Today, 8 May, Saturday

Time Temperature Precipitation Wind Pressure Humidity
00:00 +2°C° 0 mm 2 mps 757 mmHg 93%
01:00 0°C° 0 mm 3 mps 757 mmHg 94%
02:00 +1°C° 0 mm 3 mps 757 mmHg 93%
03:00 +1°C° 0 mm 3 mps 758 mmHg 92%
04:00 +2°C° 0 mm 3 mps 758 mmHg 91%
05:00 +3°C° 0 mm 3 mps 758 mmHg 86%
06:00 +4°C° 0 mm 3 mps 759 mmHg 81%
07:00 +5°C° 0 mm 3 mps 759 mmHg 75%
08:00 +6°C° 0.2 mm 4 mps 759 mmHg 72%
09:00 +7°C° 0.2 mm 4 mps 759 mmHg 69%
10:00 +8°C° 0.2 mm 5 mps 759 mmHg 66%
11:00 +8°C° 0.3 mm 5 mps 760 mmHg 68%
12:00 +8°C° 0.3 mm 5 mps 760 mmHg 70%
13:00 +8°C° 0.3 mm 6 mps 760 mmHg 71%
14:00 +8°C° 0.2 mm 5 mps 761 mmHg 69%
15:00 +8°C° 0.2 mm 5 mps 761 mmHg 67%
16:00 +8°C° 0.2 mm 5 mps 761 mmHg 65%
17:00 +8°C° 0.1 mm 3 mps 761 mmHg 69%
18:00 +7°C° 0.1 mm 2 mps 761 mmHg 73%
19:00 +7°C° 0.1 mm 1 mps 762 mmHg 76%
20:00 +6°C° 0 mm 1 mps 762 mmHg 77%
21:00 +5°C° 0 mm 1 mps 762 mmHg 78%
22:00 +3°C° 0 mm 2 mps 763 mmHg 79%
23:00 +3°C° 0 mm 2 mps 763 mmHg 80%

Tomorrow, 9 May, Sunday

Time Temperature Precipitation Wind Pressure Humidity
00:00 +2°C° 0 mm 3 mps 763 mmHg 81%
01:00 +2°C° 0 mm 3 mps 763 mmHg 82%
02:00 +2°C° 0 mm 3 mps 763 mmHg 83%
03:00 +2°C° 0 mm 3 mps 762 mmHg 84%
04:00 +1°C° 0 mm 4 mps 762 mmHg 84%
05:00 +4°C° 0 mm 4 mps 762 mmHg 81%
06:00 +6°C° 0 mm 5 mps 762 mmHg 77%
07:00 +7°C° 0 mm 5 mps 762 mmHg 73%
08:00 +9°C° 0 mm 6 mps 761 mmHg 69%
09:00 +11°C° 0 mm 6 mps 761 mmHg 65%
10:00 +12°C° 0 mm 7 mps 761 mmHg 61%
11:00 +12°C° 0 mm 7 mps 761 mmHg 63%
12:00 +12°C° 0 mm 7 mps 761 mmHg 66%
13:00 +12°C° 0 mm 7 mps 761 mmHg 68%
14:00 +14°C° 0 mm 6 mps 760 mmHg 68%
15:00 +15°C° 0 mm 6 mps 760 mmHg 67%
16:00 +16°C° 0 mm 6 mps 760 mmHg 66%
17:00 +15°C° 0 mm 5 mps 760 mmHg 71%
18:00 +14°C° 0 mm 4 mps 760 mmHg 76%
19:00 +13°C° 0 mm 4 mps 760 mmHg 81%
20:00 +13°C° 0 mm 4 mps 760 mmHg 82%
21:00 +12°C° 0 mm 4 mps 760 mmHg 83%
22:00 +12°C° 0 mm 5 mps 760 mmHg 84%
23:00 +10°C° 0 mm 5 mps 760 mmHg 84%

Day after tomorrow, 10 May, Monday

Time Temperature Precipitation Wind Pressure Humidity
00:00 +10°C° 0 mm 5 mps 760 mmHg 84%
01:00 +10°C° 0 mm 5 mps 760 mmHg 84%
02:00 +9°C° 0 mm 5 mps 760 mmHg 85%
03:00 +9°C° 0 mm 5 mps 760 mmHg 86%
04:00 +8°C° 0 mm 4 mps 760 mmHg 87%
05:00 +9°C° 0 mm 5 mps 760 mmHg 83%
06:00 +12°C° 0 mm 5 mps 760 mmHg 80%
07:00 +13°C° 0 mm 5 mps 760 mmHg 77%
08:00 +15°C° 0 mm 6 mps 760 mmHg 72%
09:00 +16°C° 0 mm 6 mps 760 mmHg 67%
10:00 +18°C° 0 mm 7 mps 759 mmHg 62%
11:00 +20°C° 0 mm 7 mps 759 mmHg 61%
12:00 +21°C° 0 mm 7 mps 759 mmHg 60%
13:00 +22°C° 0 mm 7 mps 759 mmHg 60%
14:00 +21°C° 0 mm 7 mps 759 mmHg 62%
15:00 +21°C° 0 mm 7 mps 759 mmHg 64%
16:00 +21°C° 0 mm 7 mps 759 mmHg 66%
17:00 +20°C° 0 mm 6 mps 759 mmHg 69%
18:00 +19°C° 0 mm 6 mps 759 mmHg 73%
19:00 +17°C° 0 mm 5 mps 759 mmHg 77%
20:00 +16°C° 0 mm 6 mps 759 mmHg 77%
21:00 +16°C° 0 mm 6 mps 759 mmHg 77%
22:00 +15°C° 0 mm 6 mps 759 mmHg 77%
23:00 +15°C° 0 mm 6 mps 759 mmHg 80%

11 May, Tuesday

Time Temperature Precipitation Wind Pressure Humidity
00:00 +14°C° 0 mm 6 mps 759 mmHg 83%
01:00 +13°C° 0 mm 5 mps 759 mmHg 86%
02:00 +13°C° 0 mm 5 mps 759 mmHg 88%
03:00 +12°C° 0 mm 5 mps 758 mmHg 90%
04:00 +12°C° 0 mm 5 mps 758 mmHg 92%
05:00 +13°C° 0 mm 5 mps 758 mmHg 88%
06:00 +14°C° 0 mm 6 mps 758 mmHg 84%
07:00 +15°C° 0 mm 6 mps 758 mmHg 80%
08:00 +17°C° 0 mm 6 mps 758 mmHg 75%
09:00 +18°C° 0 mm 7 mps 758 mmHg 70%
10:00 +21°C° 0 mm 7 mps 757 mmHg 66%
11:00 +22°C° 0 mm 7 mps 757 mmHg 65%
12:00 +23°C° 0 mm 7 mps 757 mmHg 64%
13:00 +24°C° 0 mm 7 mps 757 mmHg 63%
14:00 +24°C° 0 mm 7 mps 757 mmHg 64%
15:00 +24°C° 0 mm 7 mps 757 mmHg 65%
16:00 +24°C° 0 mm 7 mps 756 mmHg 67%
17:00 +22°C° 0 mm 7 mps 756 mmHg 69%
18:00 +21°C° 0 mm 8 mps 756 mmHg 72%
19:00 +20°C° 0 mm 8 mps 756 mmHg 74%
20:00 +18°C° 0 mm 8 mps 756 mmHg 73%
21:00 +17°C° 0 mm 8 mps 757 mmHg 72%
22:00 +16°C° 0 mm 7 mps 757 mmHg 70%
23:00 +16°C° 0 mm 7 mps 757 mmHg 71%

12 May, Wednesday

Time Temperature Precipitation Wind Pressure Humidity
00:00 +15°C° 0 mm 7 mps 757 mmHg 72%
01:00 +14°C° 0 mm 7 mps 757 mmHg 72%
02:00 +14°C° 0 mm 6 mps 756 mmHg 71%
03:00 +13°C° 0 mm 6 mps 756 mmHg 70%
04:00 +11°C° 0 mm 6 mps 756 mmHg 69%
05:00 +13°C° 0 mm 6 mps 756 mmHg 70%
06:00 +14°C° 0 mm 6 mps 756 mmHg 71%
07:00 +14°C° 0 mm 7 mps 756 mmHg 72%
08:00 +16°C° 0 mm 7 mps 756 mmHg 68%
09:00 +18°C° 0 mm 7 mps 756 mmHg 65%
10:00 +20°C° 0 mm 8 mps 756 mmHg 62%
11:00 +21°C° 0 mm 8 mps 756 mmHg 62%
12:00 +22°C° 0 mm 8 mps 756 mmHg 61%
13:00 +23°C° 0 mm 8 mps 756 mmHg 61%
14:00 +23°C° 0 mm 7 mps 756 mmHg 62%
15:00 +23°C° 0 mm 7 mps 756 mmHg 64%
16:00 +22°C° 0 mm 7 mps 756 mmHg 66%
17:00 +21°C° 0 mm 6 mps 756 mmHg 68%
18:00 +20°C° 0 mm 6 mps 756 mmHg 70%
19:00 +17°C° 0 mm 5 mps 756 mmHg 73%
20:00 +17°C° 0 mm 5 mps 756 mmHg 75%
21:00 +16°C° 0 mm 5 mps 756 mmHg 77%
22:00 +15°C° 0 mm 5 mps 756 mmHg 79%
23:00 +15°C° 0 mm 5 mps 756 mmHg 82%

13 May, Thursday

Time Temperature Precipitation Wind Pressure Humidity
00:00 +14°C° 0 mm 5 mps 756 mmHg 85%
01:00 +14°C° 0 mm 5 mps 756 mmHg 88%
02:00 +13°C° 0 mm 5 mps 757 mmHg 86%
03:00 +12°C° 0 mm 5 mps 757 mmHg 84%
04:00 +12°C° 0 mm 5 mps 757 mmHg 83%
05:00 +12°C° 0 mm 5 mps 757 mmHg 79%
06:00 +13°C° 0 mm 6 mps 757 mmHg 76%
07:00 +13°C° 0 mm 6 mps 757 mmHg 73%
08:00 +14°C° 0 mm 6 mps 757 mmHg 68%
09:00 +16°C° 0 mm 6 mps 757 mmHg 63%
10:00 +17°C° 0 mm 6 mps 757 mmHg 58%
11:00 +17°C° 0 mm 6 mps 757 mmHg 60%
12:00 +17°C° 0 mm 5 mps 756 mmHg 61%
13:00 +17°C° 0 mm 5 mps 756 mmHg 62%
14:00 +17°C° 0 mm 5 mps 756 mmHg 63%
15:00 +18°C° 0 mm 4 mps 756 mmHg 64%
16:00 +18°C° 0 mm 4 mps 755 mmHg 65%
17:00 +17°C° 0.1 mm 4 mps 755 mmHg 71%
18:00 +16°C° 0.1 mm 3 mps 755 mmHg 77%
19:00 +13°C° 0.1 mm 3 mps 755 mmHg 83%
20:00 +13°C° 0 mm 2 mps 754 mmHg 86%
21:00 +12°C° 0 mm 2 mps 754 mmHg 89%
22:00 +10°C° 0 mm 2 mps 754 mmHg 92%
23:00 +10°C° 0 mm 2 mps 754 mmHg 93%
Show more

We Need Your Consent

Meteoprog and our Service Providers may store and access personal data such as cookies, device identifiers or other similar technologies on your device and process such data to personalise content and ads, as well as provide social media features and to analyse the traffic.

  • Store and/or access information on your device

    Cookies, device identifiers or other information can be stored or accessed on your device for the purposes indicated above.

  • Personalised ads and content, ad and content measurement, audience insights, and products development

    Ads and content can be personalised based on a profile. More data can be added to better personalise ads and content. Ad and content performance can be measured. Insights about the audience who saw the ads and content can be derived. Such data can be used to develop or improve user’s experience, systems and software.

By clicking ‘I Agree’ you will allow the use of indicated cookies, device identifiers, web beacons or other similar technologies. Your settings can be changed in the browser on your device.

For certain purposes, legitimate interests may be relied on, rather than consent. You can read more about this in our Privacy and Cookie Policy.